GORIZONT 22 [-]

Last updated on Oct. 26, 2020, 5:52 a.m. UTC

1 20953U 90102A   20299.74239910 -.00000032  00000-0  00000-0 0  9994
2 20953  14.5294 353.3842 0005474 349.1744 320.1766  1.00270025109705
UTC
Height (km)
Latitude
Longitude
Inclination
Orbital Period
UTC large
Height (km)
Speed (km/s)
/
Latitude / Longitude
Inclination (degrees)
Orbital Period (minutes)
Azimuth
Elevation
Range (km)
Doppler Factor
iOS Compass Heading
iOS Angle

Next 30 passes for location: Hong Kong

Rise time Rise Azimuth (degrees) Set time Set Azimuth (degrees) Duration Max altitude (degrees)

No matching passes for this satellites